カタログに戻る

PAYLOAD B

運用中軍事PO
NORAD 49113·PAYLOAD·🇨🇳 China

打ち上げ Aug 24, 2021 から Jiuquan Satellite Launch Center

Loading…

次のパス (今後24時間)

TLE

最新Source: Space-Track

元期: Sep 14, 2026, 14:12 UTC

1 49113U 21076B   26257.59188812 -.00000022  00000-0 -22989-4 0  9998
2 49113  86.4016  47.1716 0017160 289.9332  70.0001 14.09484774260028

AllMySatでPAYLOAD Bをリアルタイム追跡

Download on the App Store